Flag for Spain Weather past 2 weeks in Bilbao, Spain

Now
50 °F

Light rain. Fog.


Feels Like: 48 °F
Forecast: 44 / 56 °F
Wind: 5 mph from North

Location: Bilbao / Sondica

Current Time: Jan 27, 2015 at 9:50:24 AM

Latest Report: Jan 27, 2015 at 9:30 AM


Visibility: 2 mi

Pressure: 30.48 "Hg

Humidity: 100%

Dew point: 50 °F

Location of BilbaoLocation

Historic Weather in Bilbao — Graph

°F

Bilbao temperature yesterday

Maximum temperature yesterday: 50 °F (at 2:00 PM)
Minimum temperature yesterday: 41 °F (at 5:00 AM)
Average temperature yesterday: 47 °F

Past Weeks' High & Low Weather Summary

 TemperatureHumidityPressure
High64 °F (Jan 12, 4:00 PM)100% (Jan 16, 7:00 AM)30.60 "Hg (Jan 16, 7:00 AM)
Low32 °F (Jan 24, 9:30 AM)34% (Jan 12, 2:30 PM)29.71 "Hg (Jan 15, 8:30 PM)
Average48 °F74%30.13 "Hg
* Reported Jan 12 8:00 AM — Jan 27 8:30 AM, Bilbao, Weather by CustomWeather, © 2014

Note: Actual official high and low records may vary slightly from our data, if they occured in-between our weather recording intervals... More about our weather records

Advertising

Bilbao weather history for previous 24 hours

 ConditionsComfort  
Time TempWeatherWind HumidityBarometerVisibility
8:30 AM
Jan 27
50 °FDrizzle. Fog.12 mph94%30.48 "Hg2 mi
8:00 AM50 °FDrizzle. Fog.10 mph100%30.45 "Hg2 mi
7:30 AM50 °FDrizzle. Fog.9 mph100%30.45 "Hg2 mi
7:00 AM50 °FDrizzle. Fog.No wind100%30.45 "Hg2 mi
6:30 AM46 °FDrizzle. Fog.No wind100%30.45 "Hg2 mi
6:00 AM46 °FDrizzle. Fog.1 mph100%30.45 "Hg1 mi
5:30 AM46 °FFog.1 mph100%30.48 "Hg2 mi
5:00 AM46 °FPartly cloudy.1 mph100%30.48 "Hg1 mi
11:30 PM
Jan 26
46 °FPartly cloudy.No wind93%30.51 "HgN/A
11:00 PM48 °FPartly cloudy.1 mph87%30.51 "HgN/A
10:30 PM48 °FLight rain. Partly cloudy.No wind87%30.51 "HgN/A
10:00 PM48 °FPartly cloudy.No wind82%30.54 "HgN/A
9:30 PM50 °FPartly cloudy.No wind71%30.51 "HgN/A
9:00 PM48 °FPartly cloudy.No wind76%30.51 "HgN/A
8:30 PM50 °FPassing clouds.No wind71%30.51 "HgN/A
8:00 PM48 °FPassing clouds.1 mph76%30.51 "HgN/A
7:30 PM50 °FPassing clouds.1 mph71%30.51 "HgN/A
7:00 PM50 °FPassing clouds.2 mph71%30.51 "HgN/A
6:30 PM50 °FPassing clouds.5 mph71%30.51 "HgN/A
6:00 PM50 °FPartly sunny.5 mph71%30.51 "HgN/A
5:30 PM50 °FPartly sunny.8 mph71%30.51 "HgN/A
5:00 PM50 °FPartly sunny.7 mph71%30.48 "HgN/A
4:30 PM50 °FPartly sunny.7 mph71%30.48 "HgN/A
4:00 PM50 °FPartly sunny.3 mph71%30.48 "HgN/A
3:30 PM50 °FBroken clouds.No wind71%30.51 "HgN/A
3:00 PM50 °FBroken clouds.No wind71%30.51 "HgN/A
2:30 PM50 °FBroken clouds.No wind71%30.51 "HgN/A
2:00 PM50 °FOvercast.No wind71%30.51 "HgN/A
1:30 PM48 °FOvercast.No wind76%30.51 "HgN/A
1:00 PM48 °FOvercast.No wind76%30.51 "HgN/A
12:30 PM48 °FOvercast.1 mph76%30.51 "Hg5 mi
12:00 PM48 °FOvercast.2 mph76%30.54 "Hg5 mi
11:30 AM46 °FOvercast.3 mph82%30.51 "Hg5 mi
11:00 AM45 °FOvercast.2 mph87%30.51 "Hg5 mi
10:30 AM45 °FOvercast.3 mph81%30.51 "Hg5 mi
10:00 AM43 °FOvercast.3 mph87%30.51 "HgN/A
9:30 AM43 °FOvercast.3 mph87%30.51 "HgN/A
9:00 AM43 °FPartly sunny.2 mph87%30.51 "HgN/A
Weather by CustomWeather, © 2014

See weather overviewHow to use our weather pages